Погода в Суоёки

Россия / Республика Карелия     62°12′00″N   32°36′45″E
темп.,
°C
ветер,
м/с
пор.,
м/с
влажн.,
%
обл.,
%
осадки,
мм/ч
давл.,
гПа
погр.,
м
28 сентября, вт
вт2800:00+5в11956 0.0 103310
03:00+5юв01955 0.0 103410
06:00+4юз019532 0.0 103410
09:00+7ююз018761 0.0 103594
12:00+12ююз11666 0.0 1034514
15:00+13юз11586 0.0 1034811
18:00+9ююз117742 0.0 103510
21:00+7зюз118939 0.0 103510
29 сентября, ср
ср2900:00+6з229415 0.0 103615
03:00+5з22957 0.0 103724
06:00+4з22955 0.0 103627
09:00+7з23826 0.0 1036143
12:00+11зюз22655 0.0 1036585
15:00+12зюз22605 0.0 1035810
18:00+9зюз22808 0.0 103517
21:00+6з229319 0.0 103527
30 сентября, чт
чт3000:00+5зюз119559 0.0 103514
03:00+4з119670 0.0 103514
06:00+4з119665 0.0 103511
09:00+6з12855 0.0 1035120
12:00+10зюз12655 0.0 1035569
15:00+12юз23585 0.0 1034875
18:00+8ююз12785 0.0 103310
21:00+5юз22935 0.0 103319
1 октября, пт
пт100:00+3ююз12945 0.0 103314
03:00+3ю22945 0.0 103216
06:00+3ю24975 0.0 103283
09:00+5ю27885 0.0 1031222
12:00+10ююз476632 0.0 1030702
15:00+12ююз46626 0.0 1029862
18:00+9ююз377971 0.0 1029398
21:00+8ююз288898 0.0 1029369
2 октября, сб
сб200:00+8юз269598 0.0 1029438
03:00+7зюз2483100 0.0 1029261
06:00+7ю238588 0.0 1028115
09:00+9ю2685100 0.0 1028553
12:00+11ююз367355 0.0 1028810
15:00+12ююз477097 0.0 10271006
18:00+9ю3781100 0.0 1027281
21:00+6ю210948 0.0 1027256